Regional Weather Roundup
Issued by NWS

Home | Current Version | Previous Version | Graphics & Text | Print | Product List | Glossary On
Versions: 1 2 3 4 5 6 7 8 9 10 11 12 13 14 15 16 17 18 19 20 21 22 23 24 25 26 27 28 29 30 31 32 33 34 35 36 37 38 39 40 41 42 43 44 45 46 47 48 49 50
000
ASUS43 KLSX 081707
RWRMO

WEATHER SUMMARY FOR MISSOURI
NATIONAL WEATHER SERVICE SPRINGFIELD MO
1100 AM CST THU DEC 08 2016

NOTE: "FAIR" INDICATES FEW OR NO CLOUDS BELOW 12,000 FEET WITH NO
       SIGNIFICANT WEATHER AND/OR OBSTRUCTIONS TO VISIBILITY.
       CURRENT SKY AND/OR WEATHER CONDITIONS ARE NOT AVAILABLE FOR
       CHILLICOTHE AND FARMINGTON.

MOZ001>031-035>038-043-044-053-054-081800-
...NORTHERN AND WESTERN MISSOURI...

CITY           SKY/WX    TMP DP  RH WIND       PRES   REMARKS
KANSAS CTY INT SUNNY     20   7  57 NW13      30.62S WCI   7
KANSAS C DTWN  SUNNY     22   9  57 W12       30.65R WCI  10
LEE`S SUMMIT   SUNNY     20   9  62 NW16      30.62R WCI   6
ST JOSEPH      SUNNY     20   7  57 NW17G24   30.64R WCI   5
CHILLICOTHE      N/A     21   9  59 NW16      30.60S WCI   7
KIRKSVILLE     SUNNY     21   9  59 NW16G23   30.52F WCI   7

$$
MOZ066>068-077>081-088>096-101>105-081800-
...SOUTHWEST MISSOURI...

CITY           SKY/WX    TMP DP  RH WIND       PRES   REMARKS
SPRINGFIELD    SUNNY     23  11  60 NW13G18   30.59S WCI  11
JOPLIN         SUNNY     24  11  57 NW13      30.66F WCI  12
BRANSON        PTSUNNY   25   9  50 NW9       30.59R WCI  15

$$
MOZ032>034-039>042-045>050-055>058-069>072-081800-
...CENTRAL MISSOURI...

CITY           SKY/WX    TMP DP  RH WIND       PRES   REMARKS
COLUMBIA       SUNNY     23  10  57 W14       30.56R WCI  11
JEFFERSON CITY SUNNY     23  10  57 NW13G22   30.59S WCI  11
ROLLA          SUNNY     24  13  62 W13       30.52S WCI  12
SEDALIA        MOSUNNY   23  12  62 NW13      30.61R WCI  11
WHITEMAN AFB   MOSUNNY   22  11  62 W10       30.60S WCI  11
WARRENSBURG    SUNNY     23  12  63 W10       30.63S WCI  12
OSAGE BEACH    SUNNY     26  13  57 W8        30.60S WCI  18

$$
MOZ051-052-059>065-081800-
...EAST CENTRAL MISSOURI...

CITY           SKY/WX    TMP DP  RH WIND       PRES   REMARKS
ST LOUIS INTL  MOSUNNY   27  10  49 NW15G23   30.51S WCI  15
SPIRIT OF STL  SUNNY     27  12  53 NW17      30.52F WCI  14
ST CHARLES     SUNNY     25  12  58 W17       30.51F WCI  12

$$
MOZ072>076-082>087-097>100-106>115-081800-
...SOUTH CENTRAL AND SOUTHEAST MISSOURI...

CITY           SKY/WX    TMP DP  RH WIND       PRES   REMARKS
CAPE GIRARDEAU MOSUNNY   30  13  49 W12       30.52F WCI  20
FARMINGTON     SUNNY     27  13  55 NW14      30.50F WCI  16
POPLAR BLUFF   CLOUDY    30  12  47 NW15      30.55S WCI  19
WEST PLAINS    MOSUNNY   27  11  51 W15       30.55S WCI  15

$$


USA.gov is the U.S. government's official web portal to all federal, state and local government web resources and services.